Windham, CT (06280)

8:03 AM EDT on August 27, 2014 (GMT -0400)
Charles H. Barrows STEM Academy | Change Station
CLOSE
Current Station
Personal Weather Station
Location: Windham, CT
Elevation: 361 ft
Nearby Weather Stations
Active Advisory: Air Quality Alert

Elev 361 ft 41.72 °N, 72.18 °W | Updated 3 minutes ago

Clear
Clear
64.8 °F
Feels Like 64.8 °F
N
1.0
Wind Variable Wind from SW

Today
High -- | Low -- °F
--% Chance of Precip.
Yesterday
High -- | Low -- °F
Precip. -- in
6:09 AM 7:30 PM
Waxing Crescent, 3% visible
Pressure 30.04 in
Visibility 10.0 miles
Clouds Clear
Dew Point 59 °F
Humidity 82%
Rainfall 0.00 in
Snow Depth Not available.
UV 1 out of 12
Pollen 9.30 out of 12
Ozone Good
Flu Activity Not available.
METAR KIJD 271152Z AUTO 00000KT 10SM CLR 17/16 A3004 RMK AO2 SLP170 T01670156 10172 20144 53001

More Conditions Fewer Conditions

Pressure 30.04 in
Visibility 10.0 miles
Clouds Clear
Dew Point 59 °F
Humidity 82%
Rainfall 0.00 in
Snow Depth Not available.
UV 1 out of 12
Pollen 9.30 out of 12
Ozone Good
Flu Activity Not available.
METAR KIJD 271152Z AUTO 00000KT 10SM CLR 17/16 A3004 RMK AO2 SLP170 T01670156 10172 20144 53001

More Conditions Fewer Conditions

10-Day Weather Forecast

Almanac

Astronomy

Aug. 27, 2014 Rise Set
Actual Time 6:09 AM EDT 7:30 PM EDT
Civil Twilight 5:40 AM EDT 7:58 PM EDT
Nautical Twilight 5:05 AM EDT 8:33 PM EDT
Astronomical Twilight 4:28 AM EDT 9:09 PM EDT
Moon 8:04 AM EDT 8:18 PM EDT
Length of Visible Light 14h 18m
Length of Day
13h 20m
Tomorrow will be 2m 38s shorter.
Waxing Crescent, 3% of the Moon is Illuminated
Today
Waxing Crescent
Sep 2
First Quarter
Sep 8
Full
Sep 15
Last Quarter
Sep 24
New

Today's Extremes

State Highs State Lows

Community

WunderPhotos

Upload Photos

1,747,673 photos uploaded!

Nearby

Air Quality

  Air Quality AQ Index Pollutant
Yesterday Good
OZONE
Current Good
OZONE
Wednesday Unhealthy for Sensitive Groups
OZONE
Wednesday Moderate
PM2.5

Snow Depth

Station Depth Elevation
No new snow has been reported.

Earthquake Activity

City Distance Mag. Time & Date
No recent earthquake activity has been reported nearby.
Minimum magnitude displayed is 2.5.

Coastal Water Temperatures

Place Temperature
New London, CT 69.1 °F
Newport, RI 69.1 °F
Quonset Point, RI 71.1 °F
Conimicut Light, RI 72.0 °F
Providence, RI 72.0 °F

Nearby Weather Stations